Date,TemperatureHighF,TemperatureAvgF,TemperatureLowF,DewpointHighF,DewpointAvgF,DewpointLowF,HumidityHigh,HumidityAvg,HumidityLow,PressureMaxIn,PressureMinIn,WindSpeedMaxMPH,WindSpeedAvgMPH,GustSpeedMaxMPH,PrecipitationSumIn
2012-1-1,45.0,40.0,32.1,37.0,22.4,9.0,89,52,30,30.56,29.93,21,7,23,0.05
2012-1-2,35.8,29.0,18.2,14.0,9.3,2.0,74,46,24,30.66,30.56,13,4,19,0.00
2012-1-3,48.9,32.3,14.4,25.0,16.4,9.0,86,56,31,30.57,30.07,5,0,13,0.00
2012-1-4,50.7,39.1,31.5,31.0,27.1,22.0,79,64,33,30.27,30.07,7,1,12,0.00
2012-1-5,62.8,46.7,32.1,36.0,32.3,25.0,84,60,33,30.18,29.82,2,0,4,0.00
2012-1-6,57.6,48.9,39.4,36.0,32.2,27.0,74,54,39,30.03,29.75,8,1,12,0.00
2012-1-7,49.9,38.8,25.0,28.0,25.3,22.0,88,61,37,30.25,30.04,4,0,6,0.00
2012-1-8,46.9,35.9,26.7,31.0,27.1,24.0,89,72,49,30.36,30.25,3,0,4,0.00
2012-1-9,51.5,32.9,21.3,32.0,25.5,20.0,94,77,43,30.32,30.11,3,0,6,0.00
2012-1-10,57.2,37.4,24.0,34.0,26.0,22.0,92,68,30,30.12,29.75,7,0,8,0.00
2012-1-11,48.6,33.8,23.6,35.0,26.4,19.0,93,76,52,29.97,29.66,13,3,20,0.00
2012-1-12,24.8,20.4,16.5,18.0,11.3,5.0,80,68,59,30.08,29.94,17,6,20,0.00
2012-1-13,31.3,20.7,12.5,17.0,8.8,3.0,77,61,36,30.20,30.04,8,2,15,0.00
2012-1-14,41.5,32.7,23.4,26.0,21.8,16.0,88,66,50,30.26,29.91,14,2,18,0.00
2012-1-15,61.0,42.8,22.5,34.0,26.9,20.0,90,58,29,30.24,29.82,9,2,20,0.00
2012-1-16,67.3,50.5,39.9,49.0,38.0,31.0,93,65,30,29.81,29.60,5,1,10,0.02
2012-1-17,39.9,25.5,14.3,32.0,16.7,10.0,84,70,55,30.43,29.73,13,4,21,0.00
2012-1-18,41.9,26.8,10.0,19.0,14.4,7.0,90,63,34,30.43,29.91,6,0,8,0.00
2012-1-19,33.1,25.3,16.1,22.0,12.1,4.0,76,58,43,30.14,29.89,5,1,8,0.00
2012-1-20,29.1,20.8,13.3,19.0,11.4,5.0,74,67,59,30.22,29.89,7,1,11,0.00
2012-1-21,28.2,22.6,16.7,24.0,14.4,8.0,85,71,64,30.25,29.83,9,2,10,0.00
2012-1-22,57.6,43.4,27.3,48.0,38.8,23.0,93,84,70,29.83,29.37,14,4,19,0.11
2012-1-23,46.6,37.4,25.0,33.0,28.6,23.0,90,72,51,30.09,29.57,12,3,18,0.00
2012-1-24,47.5,33.1,20.8,32.0,26.2,19.0,94,77,54,30.28,30.10,2,0,5,0.00
2012-1-25,50.7,40.6,31.9,39.0,33.3,28.0,91,76,62,30.24,29.95,5,0,7,0.00
2012-1-26,53.7,43.7,33.2,39.0,33.4,27.0,95,70,38,29.95,29.80,11,2,21,0.00
2012-1-27,40.4,34.3,25.5,34.0,29.3,23.0,92,82,68,30.22,29.86,6,1,12,0.00
2012-1-28,47.4,35.7,24.0,25.0,18.9,13.0,81,54,26,30.39,30.22,4,1,9,0.00
2012-1-29,51.7,39.2,26.7,27.0,18.4,13.0,72,46,25,30.30,30.08,4,0,7,0.00
2012-1-30,63.0,49.3,36.5,44.0,35.3,27.0,76,60,37,30.07,29.83,8,1,13,0.00
2012-1-31,67.0,55.2,36.1,52.0,44.2,31.0,84,68,38,30.05,29.82,6,1,12,0.00
2012-2-1,63.5,45.0,32.1,39.0,31.1,28.0,92,63,28,30.19,30.06,2,0,5,0.00
2012-2-2,64.4,45.8,27.6,36.0,29.7,25.0,91,59,25,30.29,30.15,7,1,9,0.00
2012-2-3,52.1,45.1,42.2,42.0,38.1,30.0,93,79,49,30.20,29.99,8,2,16,1.04
2012-2-4,43.7,40.8,33.9,42.0,39.1,32.0,95,94,91,30.28,29.98,4,1,8,0.16
2012-2-5,46.2,37.0,28.2,35.0,31.4,26.0,95,81,55,30.42,30.28,5,1,9,0.10
2012-2-6,50.9,36.8,26.7,36.0,30.3,25.0,96,80,49,30.35,30.20,4,0,8,0.00
2012-2-7,42.2,36.1,30.8,37.0,32.4,29.0,93,86,74,30.45,30.23,4,1,7,0.01
2012-2-8,37.9,34.1,31.2,31.0,28.5,23.0,90,80,65,30.52,30.41,4,1,7,0.00
2012-2-9,41.6,35.3,30.5,33.0,28.0,23.0,83,75,65,30.41,30.12,3,0,7,0.00
2012-2-10,39.2,28.3,14.0,35.0,16.1,2.0,85,62,39,30.54,30.05,13,4,21,0.00
2012-2-11,27.7,18.6,9.8,6.0,1.7,-1.0,66,49,31,30.81,30.55,7,3,13,0.00
2012-2-12,38.5,26.2,7.3,10.0,4.8,1.0,84,45,21,30.72,30.18,6,1,11,0.00
2012-2-13,34.7,32.1,28.9,32.0,27.7,10.0,94,85,36,30.18,29.80,8,2,12,0.01
2012-2-14,48.6,38.1,28.9,36.0,32.3,27.0,94,81,58,29.95,29.82,5,1,7,0.17
2012-2-15,49.9,39.7,31.9,46.0,37.7,30.0,95,92,87,30.09,29.87,4,0,6,0.07
2012-2-16,50.7,38.4,31.3,38.0,30.6,27.0,94,76,42,30.32,30.09,4,0,8,0.00
2012-2-17,60.3,43.3,27.6,38.0,32.0,25.0,94,68,40,30.22,30.05,3,1,6,0.00
2012-2-18,46.5,38.2,30.2,28.0,24.5,22.0,75,59,40,30.27,30.12,5,1,7,0.00
2012-2-19,52.1,38.2,23.2,31.0,25.9,21.0,92,64,39,30.18,30.04,4,1,9,0.00
2012-2-20,51.3,42.6,34.8,40.0,33.1,25.0,94,70,57,30.07,29.64,16,4,19,0.30
2012-2-21,55.1,43.8,35.3,39.0,33.4,29.0,95,70,39,29.94,29.65,12,1,18,0.00
2012-2-22,61.9,48.1,36.9,43.0,33.9,29.0,88,60,37,29.75,29.41,5,1,9,0.05
2012-2-23,65.2,49.0,38.2,47.0,39.0,29.0,90,70,47,29.76,29.20,15,4,29,0.00
2012-2-24,45.3,38.5,31.6,32.0,26.6,19.0,87,65,37,30.25,29.77,13,5,23,0.00
2012-2-25,46.3,37.2,25.8,29.0,22.5,16.0,89,57,38,30.39,29.98,10,2,13,0.00
2012-2-26,64.6,50.6,39.9,33.0,29.1,25.0,66,45,29,30.19,29.91,12,2,16,0.00
2012-2-27,50.1,40.3,30.5,28.0,21.9,16.0,72,50,32,30.51,30.20,5,1,10,0.00
2012-2-28,63.0,52.0,40.6,59.0,41.1,22.0,92,68,45,30.32,29.43,8,2,20,0.39
2012-2-29,57.9,50.3,39.0,52.0,33.0,29.0,80,52,39,29.88,29.50,15,3,23,0.00
2012-3-1,71.8,46.9,28.5,39.0,33.1,26.0,94,64,28,29.89,29.49,8,1,14,0.00
2012-3-2,48.2,41.0,34.2,38.0,32.5,26.0,93,73,45,29.94,29.50,10,2,14,0.16
2012-3-3,46.1,36.7,28.3,25.0,21.3,17.0,76,55,34,30.05,29.94,13,4,19,0.00
2012-3-4,61.1,44.1,25.9,36.0,27.9,22.0,89,57,33,30.21,29.84,15,4,25,0.00
2012-3-5,57.5,43.8,24.7,34.0,26.1,22.0,91,54,29,30.36,29.98,9,2,14,0.00
2012-3-6,74.1,62.3,51.2,49.0,42.3,34.0,60,49,28,29.97,29.73,10,2,18,0.00
2012-3-7,69.1,61.1,44.0,56.0,50.2,36.0,81,68,60,30.01,29.74,9,2,16,0.00
2012-3-8,49.0,39.2,28.2,37.0,28.8,23.0,92,69,38,30.51,30.01,9,2,15,0.35
2012-3-9,62.8,43.3,25.8,32.0,27.8,23.0,94,60,27,30.59,30.41,3,0,5,0.00
2012-3-10,69.1,50.3,29.2,37.0,32.8,26.0,92,56,28,30.42,30.15,7,1,11,0.00
2012-3-11,52.9,49.6,45.4,51.0,44.2,31.0,95,83,46,30.15,29.81,2,0,5,0.60
2012-3-12,76.9,58.8,48.0,55.0,49.6,44.0,95,75,41,29.95,29.75,3,1,8,0.07
2012-3-13,73.1,48.1,40.8,55.0,44.5,40.0,96,89,53,30.04,29.95,3,0,7,0.00
2012-4-9,76.3,63.1,39.9,44.0,37.2,28.0,95,45,20,30.20,30.06,3,1,7,0.00
2012-4-10,65.7,53.4,40.8,40.0,32.1,26.0,81,48,26,30.24,30.12,4,1,9,0.00
2012-4-11,61.5,49.3,39.7,38.0,28.1,24.0,86,47,25,30.34,30.17,6,1,9,0.00
2012-4-12,55.2,49.2,38.1,48.0,38.1,30.0,87,67,54,30.18,29.93,8,2,12,0.08
2012-4-13,73.9,62.1,51.8,63.0,55.7,45.0,89,80,68,29.93,29.78,9,3,13,0.04
2012-4-14,78.2,68.9,59.4,67.0,62.8,58.0,96,82,60,29.83,29.51,12,2,18,0.11
2012-4-15,75.0,68.8,55.9,64.0,56.6,41.0,84,66,40,29.58,29.41,10,3,19,0.02
2012-4-16,69.4,57.0,47.5,45.0,41.8,39.0,87,59,35,30.22,29.59,14,2,21,0.00
2012-4-17,74.8,58.8,43.3,50.0,45.7,42.0,94,66,36,30.30,30.13,7,1,10,0.00
2012-4-18,82.1,64.9,49.9,55.0,51.3,46.0,91,64,35,30.14,29.87,7,1,13,0.00
2012-4-19,82.5,67.0,52.9,60.0,52.7,47.0,81,62,36,29.88,29.62,12,2,17,0.00
2012-4-20,62.3,52.0,43.1,47.0,39.6,34.0,80,65,38,30.06,29.79,14,4,17,0.00
2012-4-21,71.3,53.8,35.4,47.0,40.2,34.0,95,65,35,30.06,29.88,5,1,8,0.00
2012-4-22,59.5,53.9,43.3,46.0,40.1,36.0,88,61,45,30.21,29.94,10,4,16,0.00
2012-4-23,67.6,50.2,36.8,44.0,38.9,34.0,96,70,29,30.22,29.96,9,1,12,0.00
2012-4-24,88.0,64.4,43.0,59.0,49.3,38.0,86,62,35,29.95,29.54,4,0,6,0.00
2012-4-25,93.5,76.7,63.2,64.0,58.7,48.0,83,57,33,29.67,29.49,6,1,9,0.00
2012-4-26,82.1,70.6,55.4,59.0,52.4,47.0,86,55,34,29.93,29.68,5,1,12,0.00
2012-4-27,65.4,60.3,54.9,54.0,47.4,44.0,88,63,52,29.95,29.62,14,4,19,0.03
2012-4-28,72.0,63.2,55.3,58.0,55.3,54.0,95,77,56,29.98,29.64,6,2,10,0.04
2012-4-29,61.4,56.4,53.0,59.0,54.4,51.0,95,93,89,30.03,29.90,4,1,10,0.85
2012-4-30,71.3,61.1,55.1,61.0,56.8,53.0,95,86,68,30.00,29.85,4,1,6,0.02
2012-5-1,83.5,70.9,60.7,71.0,65.0,59.0,96,82,63,29.87,29.64,10,1,15,0.41
2012-5-2,83.1,75.3,68.3,71.0,67.6,64.0,90,78,65,29.77,29.64,9,1,13,0.00
2012-5-3,85.9,76.0,68.9,74.0,69.5,65.0,90,80,67,29.86,29.71,10,2,15,0.00
2012-5-4,89.2,77.4,68.8,76.0,71.3,66.0,94,82,61,29.82,29.69,8,1,12,0.14
2012-5-5,91.4,79.1,65.6,74.0,70.3,65.0,96,76,54,29.79,29.69,9,1,12,0.00
2012-5-6,81.0,70.8,64.8,74.0,67.6,63.0,96,90,78,29.86,29.70,5,1,9,1.93
2012-5-7,75.0,66.4,57.5,63.0,55.9,49.0,94,72,41,30.00,29.84,8,2,14,0.22
2012-5-8,75.1,60.9,50.9,53.0,47.2,39.0,94,66,30,30.05,29.92,8,1,11,0.00
2012-5-9,72.2,58.7,45.2,51.0,46.5,43.0,95,68,38,30.07,29.92,7,1,10,0.00
2012-5-10,80.4,63.9,46.9,58.0,52.6,46.0,96,70,43,29.97,29.83,7,1,12,0.00
2012-5-11,85.0,68.6,54.3,62.0,57.4,52.0,94,70,41,30.07,29.88,5,0,7,0.00
2012-5-12,66.5,62.4,58.1,58.0,52.9,46.0,88,72,57,30.21,30.08,6,2,10,0.00
2012-5-13,77.8,65.1,55.2,58.0,53.7,52.0,92,69,41,30.23,30.10,4,1,7,0.00
2012-5-14,83.0,65.8,49.9,59.0,50.5,45.0,96,64,27,30.15,29.99,3,0,6,0.00
2012-5-15,88.9,70.0,51.8,58.0,53.9,49.0,93,62,31,30.02,29.88,3,0,9,0.00
2012-5-16,83.0,69.8,55.2,57.0,47.3,40.0,77,47,24,30.06,29.93,6,1,8,0.00
2012-5-17,86.7,70.6,53.2,60.0,53.6,48.0,87,58,38,30.00,29.83,8,2,15,0.00
2012-5-18,89.0,75.9,60.0,62.0,58.0,52.0,77,56,36,29.87,29.72,13,2,16,0.00
2012-5-19,86.9,76.6,65.5,63.0,60.0,57.0,76,58,38,29.84,29.75,18,2,20,0.00
2012-5-20,78.5,70.5,59.4,62.0,57.0,53.0,80,63,46,30.13,29.82,9,2,15,0.00
2012-5-21,78.6,65.2,51.2,53.0,46.2,41.0,83,53,31,30.25,30.07,7,1,12,0.00
2012-5-22,83.5,65.2,49.3,52.0,48.3,45.0,92,60,28,30.08,29.75,9,2,11,0.00
2012-5-23,91.2,77.3,59.8,66.0,58.0,49.0,70,52,42,29.75,29.43,13,4,21,0.00
2012-5-24,89.1,77.1,68.9,71.0,66.9,61.0,96,72,56,29.69,29.37,8,2,16,0.78
2012-5-25,88.4,73.2,61.9,77.0,68.4,61.0,96,86,64,29.90,29.69,6,1,13,0.08
2012-5-26,90.6,81.1,72.2,77.0,71.8,68.0,87,74,62,29.87,29.79,7,2,13,0.00
2012-5-27,93.9,80.1,68.6,69.0,64.8,59.0,91,63,37,29.84,29.66,6,1,17,0.00
2012-5-28,94.3,81.7,71.9,70.0,62.7,47.0,71,54,34,29.79,29.64,5,1,9,0.00
2012-5-29,89.3,75.0,59.2,59.0,54.5,49.0,79,51,32,29.88,29.78,7,1,9,0.00
2012-5-30,82.3,71.0,55.2,60.0,56.7,54.0,95,64,41,29.92,29.72,6,1,11,0.28
2012-5-31,66.8,62.2,54.2,60.0,53.7,48.0,92,74,58,29.98,29.73,13,5,19,0.02
2012-6-1,70.7,59.8,47.1,51.0,47.6,44.0,95,67,42,30.04,29.88,7,1,12,0.00
2012-6-2,86.9,67.6,49.3,59.0,53.7,47.0,94,65,35,29.91,29.76,8,1,10,0.00
2012-6-3,80.3,69.6,57.7,70.0,62.9,56.0,94,80,57,29.82,29.73,3,0,6,0.00
2012-6-4,94.2,78.3,62.7,70.0,64.1,57.0,96,67,30,29.82,29.71,11,2,15,0.00
2012-6-5,88.4,74.5,60.1,65.0,59.0,54.0,95,63,32,29.90,29.79,7,1,10,0.00
2012-6-6,87.9,75.6,62.0,61.0,57.9,55.0,82,56,38,29.97,29.85,5,1,10,0.00
2012-6-7,86.5,73.6,60.6,57.0,54.3,51.0,76,53,33,30.07,29.96,4,1,9,0.00
2012-6-8,90.5,74.5,56.6,59.0,55.8,53.0,91,57,30,30.04,29.82,6,1,14,0.00
2012-6-9,94.7,78.7,59.9,64.0,59.6,54.0,82,55,34,29.85,29.63,8,2,15,0.00
2012-6-10,93.7,83.4,72.6,70.0,65.9,62.0,70,56,42,29.70,29.62,10,4,19,0.00
2012-6-11,86.5,73.8,63.2,70.0,64.1,55.0,96,74,37,29.98,29.67,8,2,15,1.82
2012-6-12,84.5,71.3,57.8,60.0,55.1,50.0,96,62,32,30.14,29.98,6,1,13,0.00
2012-6-13,88.2,74.0,55.9,63.0,56.9,51.0,91,58,37,30.07,29.86,8,3,13,0.00
2012-6-14,91.7,80.4,66.8,67.0,63.2,58.0,80,58,43,29.90,29.73,11,3,16,0.00
2012-6-15,88.8,80.3,71.2,68.0,64.6,57.0,81,60,46,29.87,29.76,7,1,17,0.00
2012-6-16,95.0,80.5,68.5,74.0,67.8,64.0,92,68,42,29.94,29.84,5,1,14,0.00
2012-6-17,97.3,82.6,67.6,74.0,70.3,66.0,95,69,45,29.92,29.62,5,1,12,0.00
2012-6-18,99.4,87.3,77.2,72.0,69.5,65.0,76,57,39,29.66,29.57,11,2,14,0.00
2012-6-19,92.9,84.3,74.5,72.0,68.3,64.0,77,60,46,29.77,29.66,12,3,20,0.00
2012-6-20,94.7,84.9,77.0,71.0,69.1,67.0,74,60,44,29.85,29.77,6,2,14,0.00
2012-6-21,86.0,74.5,64.2,69.0,64.3,60.0,95,74,44,30.03,29.84,8,2,23,0.90
2012-6-22,89.0,74.3,59.0,64.0,61.1,58.0,96,67,39,30.03,29.89,6,1,10,0.00
2012-6-23,93.5,77.0,64.5,75.0,65.5,58.0,87,69,52,29.99,29.78,10,2,15,0.00
2012-6-24,103.4,87.2,70.4,74.0,71.1,67.0,91,62,37,29.86,29.76,4,0,9,0.00
2012-6-25,98.2,85.0,72.3,79.0,72.6,65.0,93,68,46,29.84,29.76,8,1,12,0.00
2012-6-26,96.3,83.5,69.3,72.0,64.0,53.0,67,53,42,29.87,29.70,8,2,12,0.00
2012-6-27,105.6,89.7,75.3,75.0,68.0,59.0,67,50,35,29.80,29.70,9,2,12,0.00
2012-6-28,109.6,91.2,74.4,72.0,67.3,63.0,75,49,23,29.86,29.76,4,0,7,0.00
2012-6-29,107.0,90.2,75.7,69.0,65.9,63.0,71,48,26,29.83,29.66,4,0,9,0.00
2012-6-30,97.3,81.7,76.4,71.0,66.3,65.0,69,60,42,29.75,29.70,4,0,5,0.00
2012-7-1,105.0,91.0,78.3,68.0,65.8,62.0,67,46,26,29.85,29.78,3,0,8,0.00
2012-7-2,101.4,86.7,72.0,72.0,69.4,67.0,84,59,36,29.91,29.78,5,1,9,0.00
2012-7-3,104.4,89.5,75.9,73.0,70.1,68.0,79,55,34,29.86,29.73,5,1,10,0.00
2012-7-4,106.3,89.8,74.8,70.0,64.7,61.0,66,46,26,29.86,29.75,6,1,12,0.00
2012-7-5,105.8,90.1,73.3,69.0,65.3,63.0,73,47,25,29.93,29.81,7,1,15,0.00
2012-7-6,108.6,90.7,72.6,69.0,65.8,62.0,80,48,23,29.94,29.81,5,0,11,0.00
2012-7-7,109.3,90.1,72.2,70.0,65.3,57.0,81,49,19,29.94,29.82,9,1,16,0.00
2012-7-8,91.7,83.4,77.6,75.0,69.6,66.0,73,64,50,29.96,29.89,8,1,12,0.00
2012-7-9,92.2,81.1,73.1,72.0,65.9,58.0,82,62,34,30.00,29.91,7,1,12,0.00
2012-7-10,95.7,81.4,65.6,67.0,63.1,59.0,90,57,34,30.01,29.89,6,1,13,0.00
2012-7-11,97.2,82.7,67.7,68.0,64.2,60.0,79,56,34,29.99,29.88,6,1,8,0.00
2012-7-12,99.7,82.4,69.1,76.0,66.9,61.0,88,62,32,29.95,29.86,4,0,10,0.08
2012-7-13,88.4,78.2,71.4,73.0,68.0,63.0,92,72,46,30.00,29.88,5,1,10,0.41
2012-7-14,99.3,82.7,65.6,71.0,65.3,60.0,95,61,28,30.00,29.86,7,1,10,0.00
2012-7-15,101.4,85.4,68.9,67.0,63.5,57.0,86,52,25,30.00,29.85,6,1,10,0.00
2012-7-16,100.8,86.1,72.1,72.0,67.9,65.0,83,57,34,29.91,29.74,7,1,10,0.00
2012-7-17,104.6,88.7,73.9,70.0,67.1,65.0,78,52,30,29.82,29.70,4,0,9,0.00
2012-7-18,109.6,92.5,77.2,70.0,66.6,64.0,71,46,24,29.85,29.69,5,1,10,0.00
2012-7-19,105.0,91.6,76.9,70.0,65.5,55.0,74,45,20,29.90,29.77,8,2,16,0.01
2012-7-20,96.8,83.3,69.9,68.0,64.4,56.0,86,56,26,30.01,29.90,9,1,9,0.00
2012-7-21,100.7,84.3,67.1,69.0,65.1,60.0,91,57,27,30.02,29.89,6,1,8,0.00
2012-7-22,105.0,88.6,72.0,69.0,63.5,58.0,70,47,22,29.98,29.88,6,1,11,0.00
2012-7-23,108.1,91.0,73.6,71.0,66.0,63.0,71,47,24,29.98,29.84,4,1,10,0.00
2012-7-24,107.6,91.9,78.4,71.0,67.8,66.0,69,48,27,29.91,29.73,6,1,11,0.00
2012-7-25,109.2,93.9,80.8,71.0,67.7,66.0,63,44,25,29.77,29.56,4,1,11,0.00
2012-7-26,96.5,81.8,74.1,75.0,71.6,66.0,95,74,39,29.82,29.63,6,1,27,0.38
2012-7-27,94.5,81.8,69.2,69.0,63.2,56.0,90,58,30,30.00,29.82,10,2,12,0.01
2012-7-28,98.2,82.4,66.2,66.0,63.3,59.0,87,56,33,30.07,29.93,6,2,10,0.00
2012-7-29,107.5,89.6,73.2,69.0,64.8,59.0,66,46,26,29.94,29.73,8,2,11,0.00
2012-7-30,94.1,84.7,77.0,73.0,70.9,69.0,82,64,45,29.86,29.76,4,1,8,0.00
2012-7-31,101.6,87.0,73.3,74.0,69.8,64.0,92,61,31,29.90,29.80,5,0,9,0.00
2012-8-1,100.3,88.3,76.1,72.0,68.7,64.0,74,54,32,29.84,29.71,7,1,9,0.00
2012-8-2,97.3,83.1,72.8,74.0,69.0,66.0,92,65,39,29.80,29.64,16,1,21,0.12
2012-8-3,98.9,84.4,71.8,75.0,71.4,69.0,93,67,39,29.78,29.69,5,0,6,0.00
2012-8-4,90.2,83.6,77.6,73.0,70.4,64.0,78,65,56,29.97,29.66,9,2,13,0.00
2012-8-5,92.1,78.4,63.0,64.0,57.8,51.0,90,54,26,30.15,29.98,9,2,14,0.00
2012-8-6,98.8,79.6,59.1,60.0,56.2,50.0,88,51,21,30.10,29.93,5,1,9,0.00
2012-8-7,106.9,85.4,64.6,62.0,56.5,48.0,81,44,15,29.95,29.82,6,0,8,0.00
2012-8-8,102.7,83.3,71.3,67.0,63.3,59.0,80,54,30,29.93,29.74,15,2,22,0.04
2012-8-9,86.3,76.8,65.9,68.0,64.1,59.0,91,67,47,29.91,29.83,11,2,15,0.00
2012-8-10,84.7,73.6,62.5,60.0,55.5,51.0,81,56,31,30.02,29.92,9,2,14,0.00
2012-8-11,90.2,73.1,56.7,59.0,55.4,52.0,92,59,28,30.05,29.87,4,0,7,0.00
2012-8-12,99.5,82.9,69.8,64.0,59.8,55.0,67,47,30,29.93,29.70,12,3,16,0.00
2012-8-13,76.7,70.5,60.5,63.0,60.4,57.0,87,71,57,29.99,29.83,10,3,15,0.00
2012-8-14,80.9,66.0,58.3,63.0,58.3,56.0,93,78,45,30.04,29.90,5,1,8,0.00
2012-8-15,97.6,76.6,56.6,69.0,62.6,55.0,95,66,38,29.91,29.72,6,1,15,0.00
2012-8-16,84.5,75.3,62.9,70.0,62.1,52.0,77,64,44,30.02,29.75,11,3,17,0.01
2012-8-17,86.1,70.1,56.3,54.0,49.0,43.0,84,52,22,30.08,29.93,5,1,9,0.00
2012-8-18,85.2,67.3,50.1,61.0,48.6,41.0,90,58,23,30.00,29.82,5,1,11,0.04
2012-8-19,83.6,70.2,58.4,58.0,51.5,44.0,87,56,28,30.00,29.91,5,1,11,0.00
2012-8-20,89.6,71.2,52.7,55.0,49.9,46.0,89,53,23,30.01,29.88,9,1,10,0.00
2012-8-21,96.3,76.4,57.6,53.0,49.7,45.0,76,45,19,29.99,29.91,8,1,11,0.00
2012-8-22,102.0,78.8,58.1,61.0,52.7,47.0,79,46,17,30.01,29.88,4,0,9,0.00
2012-8-23,98.9,80.9,62.6,57.0,51.4,47.0,72,40,18,30.00,29.85,13,1,17,0.00
2012-8-24,88.2,80.1,72.6,68.0,58.2,50.0,58,47,41,29.93,29.80,6,1,11,0.00
2012-8-25,87.4,77.9,73.1,72.0,64.8,57.0,92,65,50,29.87,29.79,8,1,13,0.09
2012-8-26,84.0,75.1,70.2,75.0,71.1,69.0,95,87,66,29.98,29.79,6,0,7,0.42
2012-8-27,93.3,77.1,65.8,71.0,65.8,61.0,96,72,35,30.11,29.98,4,1,9,0.01
2012-8-28,97.0,77.9,60.6,67.0,61.2,56.0,95,63,27,30.11,29.92,4,0,9,0.00
2012-8-29,99.3,79.9,62.6,66.0,62.2,59.0,94,60,28,29.98,29.83,5,0,9,0.00
2012-8-30,100.9,83.6,67.2,62.0,58.4,54.0,76,46,22,29.93,29.81,5,1,9,0.00
2012-8-31,84.6,73.6,69.9,71.0,67.6,58.0,96,83,40,29.89,29.73,11,2,20,2.80
2012-9-1,76.9,72.8,71.1,72.0,70.6,69.0,96,93,81,29.88,29.70,11,4,21,3.43
2012-9-2,89.9,75.7,64.0,73.0,68.1,63.0,96,79,53,29.92,29.81,5,1,8,0.00
2012-9-3,96.8,80.7,66.3,74.0,70.4,65.0,96,74,46,29.87,29.75,6,1,9,0.10
2012-9-4,98.2,82.3,70.5,75.0,72.1,67.0,93,74,46,29.87,29.70,9,1,26,0.17
2012-9-5,97.4,83.0,69.3,72.0,68.9,62.0,91,65,38,29.83,29.70,4,1,8,0.00
2012-9-6,93.1,80.7,69.5,71.0,64.9,59.0,77,60,42,29.92,29.76,4,1,9,0.00
2012-9-7,85.5,73.7,59.2,70.0,64.9,56.0,90,75,59,30.00,29.72,13,3,27,0.35
2012-9-8,77.0,64.3,51.7,56.0,51.6,48.0,94,67,37,30.12,29.96,12,2,16,0.00
2012-9-9,76.6,65.1,55.8,54.0,50.8,47.0,90,62,41,30.16,29.95,10,2,11,0.00
2012-9-10,82.1,66.3,50.1,57.0,53.6,49.0,96,68,39,30.15,29.98,9,2,12,0.00
2012-9-11,92.8,76.0,61.1,62.0,57.4,54.0,80,55,29,30.02,29.90,14,2,15,0.00
2012-9-12,89.5,77.1,67.2,65.0,61.2,59.0,76,59,42,30.02,29.92,7,2,14,0.00
2012-9-13,75.2,60.4,55.9,62.0,52.9,47.0,93,78,48,30.35,30.00,8,2,13,0.40
2012-9-14,72.0,60.1,51.5,54.0,51.3,47.0,94,76,42,30.36,30.25,5,1,10,0.00
2012-9-15,76.1,62.9,50.3,61.0,55.5,49.0,95,78,56,30.27,30.08,6,1,8,0.00
2012-9-16,75.6,66.4,59.7,64.0,60.9,56.0,94,83,66,30.08,29.91,3,0,6,0.00
2012-9-17,80.4,66.2,53.2,66.0,59.8,50.0,96,81,52,29.99,29.79,8,1,14,0.06
2012-9-18,71.2,56.4,46.0,50.0,44.1,37.0,96,69,31,30.09,29.98,8,1,11,0.01
2012-9-19,58.9,53.2,50.1,48.0,45.5,44.0,85,75,68,30.02,29.98,3,0,7,0.00
2012-10-12,59.4,57.8,54.3,55.0,48.6,39.0,92,72,56,30.27,30.04,5,1,9,0.02
2012-10-13,68.8,64.7,57.7,66.0,62.7,55.0,95,93,87,30.04,29.56,10,2,14,1.54
2012-10-14,68.1,61.9,48.1,62.0,52.6,44.0,94,74,43,29.96,29.50,14,4,25,0.00
2012-10-15,74.9,58.3,44.3,54.0,48.8,43.0,96,75,41,29.99,29.79,5,0,7,0.00
2012-10-16,82.3,66.2,52.6,58.0,53.6,50.0,93,67,41,29.79,29.46,4,0,10,0.00
2012-10-17,66.4,61.1,50.1,59.0,49.2,29.0,88,67,33,29.62,29.38,13,2,19,0.08
2012-10-18,59.1,52.4,46.3,41.0,33.0,29.0,75,49,33,29.66,29.59,19,4,25,0.00
2012-10-19,52.7,49.8,47.5,45.0,42.0,40.0,82,75,67,29.81,29.63,16,5,29,0.02
2012-10-20,69.8,53.3,38.5,47.0,42.9,37.0,95,72,38,29.85,29.70,6,1,9,0.00
2012-10-21,76.8,63.7,46.3,68.0,57.6,44.0,93,81,66,29.80,29.71,7,2,13,0.00
2012-10-22,81.2,71.6,60.9,70.0,66.2,59.0,96,83,66,29.78,29.68,5,1,8,0.00
2012-10-23,81.1,73.0,68.5,69.0,66.6,64.0,89,81,65,29.78,29.66,10,2,14,0.00
2012-10-24,83.9,74.7,67.1,70.0,66.8,64.0,92,77,62,29.76,29.66,10,2,14,0.00
2012-10-25,72.6,53.9,40.4,65.0,46.9,30.0,91,77,67,30.27,29.59,12,4,20,0.03
2012-10-26,47.3,41.1,34.4,31.0,29.4,28.0,83,64,50,30.47,30.27,8,3,13,0.00
2012-10-27,45.2,37.1,27.7,32.0,28.8,26.0,93,73,52,30.43,30.27,2,0,6,0.00
2012-10-28,52.3,39.6,27.8,35.0,30.3,26.0,94,72,44,30.36,30.25,3,0,6,0.00
2012-10-29,55.5,45.8,35.3,35.0,31.4,27.0,85,58,44,30.32,30.12,10,2,10,0.00
2012-10-30,57.3,43.4,31.9,37.0,32.0,29.0,93,67,37,30.12,29.98,5,0,7,0.00
2012-10-31,59.5,45.3,32.8,37.0,33.3,30.0,92,67,35,30.07,29.97,4,0,7,0.00
2012-11-1,74.5,52.0,35.7,46.0,40.3,33.0,94,69,35,30.00,29.84,7,1,15,0.00
2012-11-2,63.4,51.9,42.7,43.0,37.9,35.0,86,61,42,29.98,29.84,5,1,9,0.00
2012-11-3,56.9,46.6,36.5,36.0,34.5,32.0,87,64,45,30.19,29.92,5,1,11,0.00
2012-11-4,62.2,47.6,32.6,45.0,37.9,31.0,93,72,46,30.23,30.02,7,1,9,0.00
2012-11-5,50.3,45.9,42.6,47.0,43.2,40.0,93,90,83,30.11,29.95,7,1,10,0.11
2012-11-6,58.3,48.2,40.6,43.0,38.0,33.0,89,70,42,30.09,29.96,12,2,19,0.00
2012-11-7,52.9,44.5,36.3,37.0,34.2,32.0,88,68,51,30.18,30.05,7,1,9,0.00
2012-11-8,67.5,52.3,35.3,45.0,39.2,33.0,90,64,42,30.12,29.87,7,2,13,0.00
2012-11-9,76.8,62.5,49.5,61.0,52.6,42.0,81,71,57,29.89,29.72,8,1,12,0.00
2012-11-10,76.1,68.8,62.9,61.0,56.6,53.0,82,66,53,29.77,29.64,12,2,16,0.00
2012-11-11,68.2,43.3,30.2,59.0,38.0,22.0,93,82,67,30.22,29.61,11,4,21,1.56
2012-11-12,45.3,33.2,23.5,26.0,22.9,20.0,90,69,38,30.45,30.23,7,1,17,0.00
2012-11-13,57.3,39.3,23.3,37.0,30.3,22.0,95,73,41,30.46,30.33,4,0,6,0.00
2012-11-14,60.3,43.9,30.4,34.0,31.1,26.0,94,65,28,30.41,30.27,4,0,7,0.00
2012-11-15,58.6,44.8,33.9,39.0,34.4,30.0,90,70,41,30.39,30.26,2,0,5,0.00
2012-11-16,59.9,42.9,29.1,41.0,35.2,28.0,95,77,47,30.46,30.36,3,0,5,0.00
2012-11-17,61.8,45.0,30.4,38.0,33.6,29.0,95,69,33,30.40,30.27,8,1,16,0.00
2012-11-18,63.4,51.7,38.4,40.0,35.4,31.0,77,56,39,30.28,30.13,6,1,15,0.00
2012-11-19,66.1,54.9,44.3,50.0,45.2,36.0,93,71,47,30.13,30.02,6,1,9,0.00
2012-11-20,61.8,47.4,37.9,45.0,40.9,36.0,95,80,54,30.21,30.07,6,1,8,0.00
2012-11-21,71.5,51.4,33.8,48.0,39.8,32.0,96,69,37,30.20,29.96,5,0,7,0.00
2012-11-22,73.2,59.5,48.4,55.0,45.5,36.0,70,60,49,30.22,29.82,11,2,19,0.00
2012-11-23,48.2,36.8,26.7,36.0,19.4,13.0,70,51,36,30.48,30.22,18,5,24,0.00
2012-11-24,45.2,34.7,21.5,26.0,20.6,16.0,84,59,41,30.43,29.92,10,1,11,0.00
2012-11-25,55.8,44.2,34.3,34.0,29.9,26.0,76,58,40,30.06,29.90,5,0,6,0.00
2012-11-26,43.2,34.2,25.1,29.0,25.4,17.0,85,71,51,30.48,30.06,9,1,11,0.00
2012-11-27,41.1,27.9,15.2,21.0,16.9,12.0,89,66,39,30.49,30.29,3,0,7,0.00
2012-11-28,54.2,36.6,21.2,33.0,26.9,19.0,92,70,44,30.43,30.18,3,0,8,0.00
2012-11-29,60.5,47.4,31.6,44.0,37.0,28.0,88,69,52,30.18,29.94,6,0,9,0.00
2012-11-30,63.0,49.9,41.0,43.0,39.7,36.0,88,69,46,30.06,29.98,2,0,5,0.00
2012-12-1,67.7,57.9,46.0,60.0,53.6,42.0,95,86,74,29.98,29.74,7,1,10,0.00
2012-12-2,67.1,50.0,40.1,54.0,46.2,39.0,96,88,54,30.00,29.82,3,0,5,0.00
2012-12-3,72.7,63.6,52.4,61.0,54.3,38.0,95,73,55,30.00,29.69,9,2,16,0.00
2012-12-4,60.7,47.8,35.5,38.0,32.4,27.0,85,59,29,30.30,30.01,5,0,8,0.00
2012-12-5,59.1,44.5,30.0,36.0,31.9,27.0,92,65,37,30.34,30.02,7,1,15,0.00
2012-12-6,54.1,48.0,41.0,45.0,39.5,33.0,87,73,56,30.02,29.86,5,0,9,0.00
2012-12-7,48.0,45.8,43.1,44.0,43.0,41.0,93,90,85,29.94,29.84,2,0,5,0.03
2012-12-8,44.3,40.2,35.2,42.0,37.2,33.0,95,89,78,30.01,29.88,2,0,5,0.02
2012-12-9,43.4,36.6,22.5,40.0,30.5,13.0,95,79,59,30.09,29.83,15,4,22,0.01
2012-12-10,28.9,22.8,17.9,17.0,13.7,11.0,80,68,60,30.13,30.04,12,3,20,0.00
2012-12-11,43.9,29.6,18.9,23.0,17.6,12.0,76,63,42,30.17,30.04,2,0,6,0.00
2012-12-12,52.0,37.4,23.5,23.0,18.2,14.0,79,50,24,30.24,30.10,7,1,13,0.00
2012-12-13,57.4,42.8,33.5,28.0,23.6,18.0,70,48,30,30.15,30.07,6,0,8,0.00
2012-12-14,53.3,44.6,33.1,42.0,31.4,26.0,92,62,46,30.11,29.71,11,2,21,0.36
2012-12-15,56.2,49.6,41.8,48.0,44.7,38.0,92,83,73,29.71,29.49,12,2,16,0.08
2012-12-16,41.2,37.5,33.3,38.0,35.5,32.0,95,92,87,29.79,29.69,4,0,5,0.00
2012-12-17,47.2,38.0,31.4,36.0,33.4,29.0,95,84,64,29.79,29.68,3,1,7,0.00
2012-12-18,56.3,43.5,33.3,38.0,34.4,31.0,94,73,46,29.89,29.60,10,2,16,0.00
2012-12-19,41.8,38.5,33.6,39.0,34.5,31.0,94,85,76,29.90,29.41,4,1,9,0.06
2012-12-20,39.0,28.2,22.9,37.0,24.6,17.0,95,86,70,30.26,29.38,18,9,30,0.16
2012-12-21,38.2,26.8,17.2,24.0,19.0,14.0,92,74,45,30.40,30.26,3,0,8,0.04
2012-12-22,50.3,31.3,17.8,32.0,24.7,16.0,93,79,45,30.26,29.95,2,0,3,0.07
2012-12-23,35.3,28.8,24.2,27.0,24.2,21.0,94,83,70,30.02,29.92,4,1,5,0.00
2012-12-24,27.0,22.1,19.5,22.0,16.5,14.0,87,79,68,30.21,29.97,7,2,14,0.00
2012-12-25,23.0,19.2,13.7,16.0,13.2,7.0,85,78,64,30.37,30.20,5,2,12,0.00
2012-12-26,26.8,18.2,11.4,17.0,11.1,6.0,88,74,62,30.31,30.21,7,2,10,0.00
2012-12-27,37.0,26.7,15.5,25.0,20.7,13.0,91,78,62,30.22,29.96,6,1,11,0.00
2012-12-28,31.8,28.9,23.1,26.0,23.5,17.0,85,80,74,30.10,29.97,11,2,18,0.00
2012-12-29,33.0,24.9,19.0,20.0,17.5,15.0,88,74,56,30.33,30.10,11,2,15,0.00
2012-12-30,47.7,33.1,17.5,26.0,21.4,15.0,92,66,38,30.36,30.13,3,0,10,0.00
2012-12-31,37.1,32.0,23.4,32.0,26.2,19.0,92,80,58,30.20,30.06,3,0,6,0.02
2013-1-1,24.4,18.2,10.3,20.0,12.2,8.0,89,78,60,30.35,30.20,5,0,7,0.00